Location: Arcueil
(48.7999°N, 2.3326°E)
Time: 14:44:32
(UTC+00:00)

BlueWalker 3 - Visible Passes

Search period start: 09 June 2023 00:00
Search period end: 19 June 2023 00:00
Orbit: 494 x 513 km, 53.2° (Epoch: 08 June)

Date Brightness Start Highest point End Pass type
(mag) Time Alt. Az. Time Alt. Az. Time Alt. Az.
09 Jun 2.5 20:59:34 10° WNW 21:03:23 56° NNE 21:07:12 10° E visible
09 Jun 2.3 22:38:11 10° WNW 22:41:54 45° SW 22:42:47 37° S visible
10 Jun 2.5 20:39:07 10° WNW 20:42:55 56° NNE 20:46:45 10° E visible
10 Jun 2.4 22:17:44 10° WNW 22:21:25 44° SW 22:22:42 32° SSE visible
11 Jun 2.5 21:57:16 10° WNW 22:00:56 43° SW 22:02:39 26° SSE visible
12 Jun 2.5 21:36:47 10° WNW 21:40:27 42° SW 21:42:39 21° SSE visible
13 Jun 2.6 21:16:18 10° WNW 21:19:56 41° SW 21:22:41 16° SSE visible
14 Jun 2.7 20:55:48 10° WNW 20:59:25 40° SW 21:02:46 12° SSE visible
15 Jun 2.8 20:35:17 10° WNW 20:38:54 39° SW 20:42:31 10° SSE visible
